Tracking 20241 objects as of 27-Jan-2020
HD Live streaming from Space Station
objects crossing your sky now

FENGYUN 1C DEB

Track FENGYUN 1C DEB now!
10-day predictions


NORAD ID: 31887
Int'l Code: 1999-025CKN
Perigee: 759.0 km
Apogee: 810.3 km
Inclination: 99.5 °
Period: 100.4 minutes
Semi major axis: 7155 km
RCS: 0.0075 m2 (small)
Launch date: May 10, 1999
Source: People's Republic of China (PRC)
Launch site: Taiyaun Space Center, China (TSC)

Note: This is SATELLITE DEBRIS
aabbcc
Your satellite tracking list
Your tracking list is empty




NASA's NSSDC Master Catalog

Two Line Element Set (TLE):
1 31887U 99025CKN 20026.81653973  .00000236  00000-0  10211-3 0  9993
2 31887  99.5396 164.9279 0035904  97.5637 262.9625 14.34264055657640
Source of the keplerian elements: AFSPC